Torna al catalogo

JILIN-1 GAOFEN 06A 20 XING

AttivoScienzaSSO
NORAD 57031·PAYLOAD·🇨🇳 China
Questo nome del satellite non è ancora stato confermato da fonti ufficiali.

Lanciato Jun 15, 2023 da Taiyuan Satellite Launch Center

Loading…

Prossimi Passaggi (prossime 24 ore)

TLE

AggiornatoSource: Space-Track

Epoca: Sep 14, 2026, 14:29 UTC

1 57031U 23085AD  26257.60382552  .00014103  00000-0  38853-3 0  9996
2 57031  97.5026  11.8793 0009068 117.4186 242.7981 15.37213763180502

Traccia JILIN-1 GAOFEN 06A 20 XING in tempo reale con AllMySat

Download on the App Store